Date String (YYYY-MM-DD hh:mm:ss) UTC,Instrument flags,Ambient pressure (hPa),Sample flow (lpm),Bypass flow (lpm),Sample temperature (°C),Ambient temperature (°C),ASC tube jacket temperature (°C),LED temperature (°C),Box temperature (°C),Sample RH (%),Span deviation,Mass concentration (μg/m³),Mass concentration (μg/m³),Mass concentration (μg/m³)
DateTimeUTC,F1_M11,P_M11,Q1_M11,Q2_M11,T1_M11,T2_M11,T3_M11,T4_M11,T5_M11,U1_M11,ZSPAN_M11,X0_M11,X2_M11,X1_M11
2022-04-22 00:00:00,,0818.0,5.01,0.00,29.4,26.6,00.0,38.4,31.0,14.3,0003.1,0037.49,0010.10,0006.23
2022-04-22 00:01:00,,0818.0,4.98,0.00,29.4,27.1,00.0,38.4,31.2,14.3,0002.6,0036.90,0009.99,0006.21
2022-04-22 00:02:00,,0818.0,5.01,0.00,29.4,27.5,00.0,38.4,31.3,14.1,0003.5,0037.37,0010.01,0006.19
2022-04-22 00:03:00,,0818.0,4.99,0.00,29.5,27.8,00.0,38.4,31.4,14.2,0003.7,0035.54,0009.98,0006.16
2022-04-22 00:04:00,,0818.0,5.01,0.00,29.5,28.1,00.0,38.4,31.4,14.1,0003.3,0036.14,0010.04,0006.13
2022-04-22 00:05:00,,0818.0,4.99,0.00,29.6,28.3,00.0,38.4,31.5,14.0,0002.7,0036.58,0010.07,0006.10
2022-04-22 00:06:00,,0818.0,5.01,0.00,29.6,28.5,00.0,38.4,31.6,13.9,0003.1,0037.90,0010.08,0006.07
2022-04-22 00:07:00,,0818.1,4.99,0.00,29.7,28.7,00.0,38.4,31.7,13.9,0002.5,0040.84,0010.26,0006.09
2022-04-22 00:08:00,,0818.1,5.02,0.00,29.8,28.9,00.0,38.5,31.8,13.9,0002.7,0041.74,0010.35,0006.11
2022-04-22 00:09:00,,0818.1,4.99,0.00,29.8,28.6,00.0,38.5,31.7,13.9,0002.6,0041.60,0010.39,0006.12
2022-04-22 00:10:00,,0818.1,5.00,0.00,29.7,26.5,00.0,38.5,31.1,14.0,0002.1,0041.23,0010.30,0006.12
2022-04-22 00:11:00,,0818.0,5.00,0.00,29.5,25.2,00.0,38.5,30.8,14.0,0002.7,0040.66,0010.32,0006.13
2022-04-22 00:12:00,,0818.0,4.99,0.00,29.4,25.6,00.0,38.4,30.9,14.1,0002.4,0040.84,0010.45,0006.12
2022-04-22 00:13:00,,0818.0,5.00,0.00,29.4,26.1,00.0,38.4,30.9,14.2,0002.2,0040.33,0010.46,0006.13
2022-04-22 00:14:00,,0818.0,5.01,0.00,29.4,26.7,00.0,38.4,31.1,14.2,0002.0,0041.63,0010.43,0006.13
2022-04-22 00:15:00,,0818.0,5.00,0.00,29.4,27.1,00.0,38.3,31.2,14.2,0001.7,0041.86,0010.37,0006.11
2022-04-22 00:16:00,,0818.0,4.98,0.00,29.4,27.6,00.0,38.3,31.3,14.3,0002.0,0043.04,0010.31,0006.11
2022-04-22 00:17:00,,0818.0,5.01,0.00,29.5,27.9,00.0,38.3,31.4,14.3,0001.0,0043.20,0010.32,0006.10
2022-04-22 00:18:00,,0818.0,5.01,0.00,29.5,28.2,00.0,38.4,31.5,14.1,0001.8,0041.66,0010.26,0006.09
2022-04-22 00:19:00,,0818.0,4.99,0.00,29.6,28.4,00.0,38.4,31.5,14.2,0002.1,0040.34,0010.26,0006.08
2022-04-22 00:20:00,,0818.0,5.02,0.00,29.6,28.6,00.0,38.4,31.6,14.2,0002.4,0039.34,0010.14,0006.06
2022-04-22 00:21:00,,0818.0,4.99,0.00,29.7,28.7,00.0,38.4,31.7,14.2,0002.7,0040.24,0010.18,0006.07
2022-04-22 00:22:00,,0818.0,4.99,0.00,29.7,28.8,00.0,38.5,31.7,14.1,0001.3,0041.52,0010.25,0006.06
2022-04-22 00:23:00,,0818.0,5.00,0.00,29.7,27.3,00.0,38.5,31.3,14.0,0000.9,0042.53,0010.25,0006.07
2022-04-22 00:24:00,,0818.0,5.01,0.00,29.5,25.3,00.0,38.5,30.8,14.3,0000.0,0042.82,0010.22,0006.05
2022-04-22 00:25:00,,0818.0,5.02,0.00,29.4,25.4,00.0,38.4,30.8,14.5,0001.1,0040.47,0010.24,0006.05
2022-04-22 00:26:00,,0818.0,4.99,0.00,29.3,25.9,00.0,38.4,30.8,14.7,0002.3,0039.42,0010.24,0006.03
2022-04-22 00:27:00,,0818.0,5.00,0.00,29.3,26.4,00.0,38.3,31.0,14.5,0000.0,0037.88,0010.33,0006.04
2022-04-22 00:28:00,,0818.0,4.99,0.00,29.3,26.9,00.0,38.3,31.1,14.3,0000.3,0037.39,0010.29,0006.06
2022-04-22 00:29:00,,0818.0,4.99,0.00,29.4,27.4,00.0,38.3,31.2,14.2,0003.8,0036.30,0010.24,0006.08
2022-04-22 00:30:00,,0818.0,5.01,0.00,29.4,27.7,00.0,38.3,31.3,14.2,0003.9,0036.04,0010.16,0006.10
2022-04-22 00:31:00,,0818.0,4.98,0.00,29.5,28.0,00.0,38.3,31.4,14.3,0002.6,0035.84,0010.19,0006.11
2022-04-22 00:32:00,,0818.0,5.01,0.00,29.5,28.3,00.0,38.3,31.5,14.2,0003.5,0034.58,0010.21,0006.12
2022-04-22 00:33:00,,0818.0,4.99,0.00,29.6,28.5,00.0,38.3,31.5,14.1,0003.3,0033.31,0010.25,0006.14
2022-04-22 00:34:00,,0818.0,5.01,0.00,29.6,28.7,00.0,38.4,31.6,14.0,0003.5,0031.75,0010.27,0006.16
2022-04-22 00:35:00,,0818.0,4.99,0.00,29.7,28.9,00.0,38.4,31.7,14.0,0003.9,0031.69,0010.35,0006.17
2022-04-22 00:36:00,,0818.0,5.00,0.00,29.7,28.8,00.0,38.4,31.7,13.9,0003.9,0033.24,0010.41,0006.18
2022-04-22 00:37:00,,0818.0,5.00,0.00,29.7,26.9,00.0,38.5,31.3,14.0,0004.1,0035.61,0010.51,0006.20
2022-04-22 00:38:00,,0817.9,5.00,0.00,29.5,25.2,00.0,38.4,30.9,14.3,0004.5,0036.23,0010.55,0006.22
2022-04-22 00:39:00,,0817.9,5.00,0.00,29.4,25.4,00.0,38.4,30.9,14.5,0004.5,0037.07,0010.53,0006.21
2022-04-22 00:40:00,,0818.0,5.00,0.00,29.4,25.9,00.0,38.4,30.9,14.4,0003.8,0037.99,0010.53,0006.19
2022-04-22 00:41:00,,0818.0,5.00,0.00,29.3,26.5,00.0,38.3,31.0,14.4,0002.7,0037.98,0010.54,0006.19
2022-04-22 00:42:00,,0818.0,4.99,0.00,29.3,27.0,00.0,38.3,31.1,14.3,0002.3,0039.29,0010.60,0006.19
2022-04-22 00:43:00,,0817.9,5.01,0.00,29.4,27.4,00.0,38.3,31.2,14.3,0002.0,0039.15,0010.58,0006.19
2022-04-22 00:44:00,,0817.9,4.99,0.00,29.4,27.8,00.0,38.3,31.3,14.4,0001.9,0038.13,0010.48,0006.18
2022-04-22 00:45:00,,0817.8,5.00,0.00,29.5,28.1,00.0,38.3,31.4,14.3,0001.6,0039.99,0010.46,0006.17
2022-04-22 00:46:00,,0817.9,5.02,0.00,29.5,28.3,00.0,38.3,31.5,14.2,0001.3,0039.15,0010.40,0006.18
2022-04-22 00:47:00,,0817.9,4.98,0.00,29.6,28.5,00.0,38.4,31.5,14.1,0001.2,0039.78,0010.37,0006.20
2022-04-22 00:48:00,,0817.8,5.01,0.00,29.6,28.7,00.0,38.4,31.6,14.1,0000.3,0038.07,0010.28,0006.19
2022-04-22 00:49:00,,0817.9,4.99,0.00,29.7,28.9,00.0,38.4,31.7,14.0,0000.4,0036.35,0010.17,0006.17
2022-04-22 00:50:00,,0817.9,4.99,0.00,29.8,28.7,00.0,38.4,31.7,14.0,0000.2,0036.51,0010.16,0006.18
2022-04-22 00:51:00,,0817.8,5.00,0.00,29.7,26.5,00.0,38.5,31.2,14.2,0000.3,0035.10,0010.21,0006.19
2022-04-22 00:52:00,,0817.8,5.01,0.00,29.5,25.1,00.0,38.4,30.8,14.5,0001.3,0035.50,0010.32,0006.20
2022-04-22 00:53:00,,0817.7,5.00,0.00,29.4,25.4,00.0,38.4,30.9,14.5,0001.6,0035.03,0010.45,0006.18
2022-04-22 00:54:00,,0817.8,5.00,0.00,29.3,25.9,00.0,38.3,30.9,14.4,0001.8,0034.86,0010.43,0006.18
2022-04-22 00:55:00,,0817.7,4.99,0.00,29.3,26.5,00.0,38.3,31.0,14.2,0001.0,0036.03,0010.47,0006.17
2022-04-22 00:56:00,,0817.7,5.00,0.00,29.3,27.0,00.0,38.3,31.1,14.3,0001.5,0034.44,0010.42,0006.16
2022-04-22 00:57:00,,0817.7,5.01,0.00,29.4,27.4,00.0,38.3,31.2,14.2,0001.4,0034.64,0010.33,0006.15
2022-04-22 00:58:00,,0817.7,5.00,0.00,29.4,27.8,00.0,38.3,31.3,14.2,0000.1,0034.47,0010.39,0006.13
2022-04-22 00:59:00,,0817.7,5.00,0.00,29.5,28.1,00.0,38.3,31.4,14.3,0000.0,0033.90,0010.33,0006.13
